Wind_Speed
24 23 22 21 21 20 18 17 15 13 13 12 10 8 5 3 3 3 4 5 6 7 9 9 10 9 10 10 10 9 10 10 10 10 11 10 9 9 9 8 6 5 4 4
25 25 23 23 23 23 21 19 17 16 16 15 14 11 9 7 6 4 4 4 4 6 7 7 8 9 8 8 8 8 8 8 9 9 9 9 9 9 9 8 7 6 5 4
26 25 26 26 25 25 23 22 20 19 18 18 17 15 12 10 9 7 6 6 5 5 5 6 7 8 8 7 6 6 7 7 7 7 7 8 8 8 8 7 7 6 6 4
27 26 27 27 27 27 25 23 22 22 22 21 21 19 15 13 11 9 9 8 8 7 6 6 7 8 8 7 6 6 6 6 6 6 6 6 6 7 7 7 7 7 6 5
27 27 28 28 27 27 26 26 26 25 24 24 22 22 18 16 14 12 10 10 10 8 7 7 8 9 8 8 7 7 7 7 6 6 5 4 5 6 6 6 6 6 6 6
28 29 29 29 29 29 27 27 28 28 28 27 24 24 20 18 16 15 12 12 12 11 9 9 9 10 9 9 8 8 7 6 7 7 7 5 5 5 6 6 6 6 6 6
29 30 30 31 31 31 31 30 30 31 31 29 26 27 22 19 19 18 17 15 15 14 13 12 11 11 10 10 9 9 8 7 7 8 8 6 6 6 6 7 7 6 6 6
30 30 31 32 33 33 33 33 33 33 32 30 30 30 24 21 20 20 19 18 18 17 16 15 15 13 12 12 11 10 10 9 9 9 8 8 7 7 7 8 8 8 6 6
31 30 30 32 34 35 35 34 34 34 34 34 33 31 28 24 22 21 20 20 19 19 19 17 17 15 14 14 12 12 12 12 11 11 10 8 9 9 8 9 9 9 9 8
31 31 31 32 34 36 35 35 35 36 36 36 36 34 31 26 24 23 22 21 20 20 20 19 19 18 17 16 14 14 14 14 14 14 13 11 11 10 10 10 10 10 10 10
31 32 31 32 34 35 35 35 36 36 37 37 38 36 30 28 25 24 23 22 21 21 21 21 20 21 20 18 17 16 16 16 17 17 16 15 14 13 12 12 12 12 12 12
32 33 32 32 33 33 34 35 36 37 38 38 38 36 31 29 27 25 24 23 22 22 22 22 22 22 20 20 19 19 19 19 19 19 19 18 18 16 15 15 15 15 15 14
32 33 32 32 33 33 34 35 36 38 39 39 39 37 32 31 29 27 26 25 24 24 24 23 23 23 23 21 21 21 21 21 21 20 20 20 19 19 18 19 18 18 17 17
32 33 33 34 33 33 34 35 36 38 39 39 39 37 33 31 30 29 29 28 27 27 26 25 25 24 24 24 24 24 24 23 23 23 23 23 22 21 21 21 21 21 20 20
33 34 34 34 34 34 34 34 36 37 39 39 39 37 34 33 32 31 30 30 29 28 29 28 28 27 25 25 26 27 27 26 26 25 25 25 24 24 23 23 22 23 22 22
33 34 35 35 35 35 34 34 35 36 37 39 40 38 35 35 35 34 33 32 32 31 31 32 31 28 28 28 28 29 29 29 29 28 27 27 27 27 26 25 24 24 24 25
34 33 34 35 35 37 37 36 36 36 37 38 39 39 38 38 37 35 35 35 33 33 32 32 31 31 31 31 30 30 30 30 30 29 29 28 28 29 29 28 28 27 27 27
32 33 33 35 35 36 35 36 37 37 38 38 37 37 37 38 38 36 36 35 34 34 33 33 33 33 33 33 33 31 32 31 31 31 30 30 31 30 30 30 30 30 30 30
33 33 34 35 36 36 35 35 36 37 37 37 37 37 38 37 37 36 35 35 35 35 35 34 35 36 35 35 35 35 33 32 32 33 32 32 32 32 32 32 32 33 33 33
34 33 33 34 35 36 35 35 36 37 37 36 37 37 37 36 37 35 35 36 36 35 35 36 35 36 36 36 36 35 35 35 34 33 33 34 35 35 35 35 35 36 36 35
33 33 33 34 34 35 35 34 34 35 36 36 36 37 37 36 35 35 35 36 37 37 37 37 37 36 36 36 36 36 36 35 34 34 35 35 36 37 37 37 38 39 39 38
31 32 32 33 33 33 33 33 33 35 35 35 35 35 35 35 35 35 35 35 36 38 38 38 38 37 37 38 38 38 37 37 36 36 36 36 37 38 38 38 39 40 40 40
31 32 32 32 32 32 32 33 32 33 34 34 34 34 34 33 33 33 34 34 35 36 36 36 37 37 37 37 38 37 38 39 38 38 38 38 38 38 39 40 40 40 40 40
31 31 32 32 31 31 31 32 32 32 33 33 33 33 32 32 32 33 32 33 34 35 35 35 36 37 37 38 38 39 39 40 40 40 40 40 40 40 40 40 40 40 40 40
30 30 30 30 30 31 31 30 31 31 31 32 33 33 32 32 32 32 33 33 34 34 34 35 36 37 38 39 40 40 41 42 42 41 41 41 41 40 40 41 41 41 40 40
27 28 28 29 29 30 30 29 30 31 31 32 33 33 33 33 33 32 33 33 34 34 35 35 36 38 39 40 40 41 42 42 42 41 40 41 41 41 42 42 42 42 42 41
Wind_Direction
230 229 226 229 231 232 235 237 236 235 236 242 246 248 248 280 314 337 351 356 7 17 21 23 23 24 28 35 40 42 45 49 49 48 46 46 47 46 46 47 47 41 30 19
232 232 231 230 231 233 235 238 240 237 240 244 245 248 252 262 273 273 297 320 332 349 360 10 15 15 14 20 30 34 36 42 43 43 43 43 43 41 39 38 39 33 22 15
235 234 234 233 232 234 238 240 240 241 242 245 245 245 251 255 256 260 268 282 294 318 339 349 355 356 358 2 10 20 20 22 29 32 34 36 35 31 27 26 26 21 13 7
233 232 234 234 233 234 237 240 242 242 244 246 247 246 246 249 252 259 268 271 282 293 307 323 332 337 341 345 349 354 358 355 2 13 13 19 21 19 19 20 19 16 11 3
234 232 235 236 235 237 238 239 242 245 246 247 247 249 245 247 250 257 267 267 272 278 287 302 313 320 322 322 326 329 334 338 335 341 348 347 360 7 9 13 10 6 4 1
235 234 236 238 237 237 238 238 242 243 245 245 247 250 246 249 252 254 261 264 266 269 278 289 291 298 305 304 308 310 312 328 329 327 326 325 337 346 348 346 347 348 349 349
236 235 236 237 237 236 237 239 242 243 245 248 249 251 251 250 253 253 255 259 259 263 270 273 273 276 287 292 294 298 302 314 320 322 317 309 314 322 324 325 325 325 323 322
238 236 236 237 237 238 238 239 243 247 249 250 251 252 252 252 255 255 254 256 257 260 265 269 265 265 277 283 288 295 298 298 302 308 305 301 304 311 312 312 311 309 308 304
241 239 237 237 236 237 236 239 243 248 250 251 252 254 254 254 256 256 257 259 261 259 262 265 264 264 269 274 282 289 289 287 287 291 299 296 295 296 302 301 297 296 299 299
244 242 238 238 237 237 238 240 242 245 249 252 254 255 256 258 258 259 260 260 260 259 260 261 263 263 266 268 272 282 285 281 278 280 283 285 283 284 289 295 292 289 291 293
245 244 238 236 237 237 238 239 242 246 249 253 256 258 258 259 261 261 259 259 259 260 262 263 265 263 264 264 267 275 280 281 276 278 279 280 278 278 283 286 287 285 289 291
246 246 243 238 237 240 241 242 244 246 250 253 257 259 259 258 260 260 259 260 260 260 260 259 261 261 263 263 266 270 275 279 279 278 276 278 278 276 278 279 282 282 283 284
245 246 246 242 239 239 242 243 246 248 251 253 256 258 257 258 259 259 259 259 260 261 259 259 261 262 263 262 264 268 271 274 279 277 274 277 279 275 274 276 279 281 280 280
246 246 247 247 245 243 244 245 247 250 252 254 257 259 257 257 257 257 258 258 258 259 259 259 257 259 262 264 264 265 267 271 271 272 271 272 278 274 272 273 274 276 277 279
248 247 248 249 248 247 246 246 248 250 253 255 257 259 258 256 257 259 260 259 258 260 259 258 257 260 262 263 266 266 265 267 267 269 271 273 276 276 276 273 273 274 275 277
249 249 249 250 249 249 248 246 247 249 251 254 255 256 257 258 257 259 260 260 258 259 258 258 260 261 263 263 264 266 266 267 266 269 272 274 275 278 278 274 274 276 278 278
251 252 251 251 250 251 250 249 249 250 250 253 255 256 255 257 258 258 260 261 260 258 259 259 261 260 262 263 264 266 269 269 270 271 272 275 278 278 278 275 275 275 277 277
252 253 253 253 253 254 253 251 251 252 253 253 254 256 258 259 260 259 259 259 258 257 256 256 258 258 260 264 266 268 270 273 274 272 274 277 280 280 276 276 276 276 276 276
251 252 253 253 254 255 253 254 253 254 255 255 255 256 258 260 261 260 258 257 255 254 254 255 257 257 260 263 267 270 271 275 276 277 276 277 277 278 279 277 277 276 275 275
253 253 255 255 255 255 254 255 255 255 256 257 259 259 259 259 259 258 257 257 256 255 255 256 258 259 261 263 266 269 270 273 275 276 276 276 277 277 278 277 276 277 276 274
253 255 255 255 257 258 258 259 258 258 260 260 261 261 259 258 259 258 256 255 255 255 256 258 259 261 263 265 267 270 272 274 275 275 275 275 275 275 277 278 278 277 277 276
253 254 254 255 257 258 258 259 258 260 261 261 262 262 261 260 261 260 257 255 255 255 256 259 260 260 262 265 268 271 272 274 275 275 275 275 276 276 276 277 277 277 277 277
255 255 257 257 258 258 257 257 258 259 261 263 263 263 262 261 261 260 260 259 260 259 259 259 258 260 262 265 267 270 273 274 275 274 274 275 276 277 276 277 277 277 278 278
258 257 257 258 257 257 258 259 259 259 260 261 262 260 259 260 260 261 261 261 263 262 261 260 259 260 263 266 267 270 273 274 274 274 274 275 274 275 276 277 277 277 277 278
258 259 259 259 259 258 258 258 258 260 259 259 260 259 257 257 257 259 260 261 261 261 263 263 262 263 266 268 269 270 272 273 274 275 275 275 275 275 275 276 277 278 277 277
258 259 259 259 259 260 260 258 256 259 261 260 260 260 259 257 257 258 260 262 263 264 265 265 266 269 269 270 270 270 271 272 273 273 274 275 275 275 276 277 277 277 276 276
Height
5887 5891 5893 5895 5896 5898 5899 5901 5902 5904 5903 5904 5904 5905 5905 5906 5906 5906 5906 5905 5905 5904 5903 5901 5900 5899 5898 5897 5895 5894 5892 5891 5890 5889 5888 5887 5886 5885 5884 5884 5883 5883 5882 5882
5884 5887 5890 5891 5893 5894 5896 5897 5899 5901 5902 5901 5902 5903 5904 5905 5905 5905 5905 5905 5904 5904 5903 5902 5901 5900 5899 5898 5896 5895 5893 5892 5891 5890 5890 5888 5887 5886 5885 5885 5884 5883 5883 5882
5880 5885 5886 5887 5889 5891 5893 5895 5896 5898 5899 5899 5900 5901 5902 5903 5903 5904 5904 5904 5903 5903 5903 5902 5901 5900 5899 5898 5897 5896 5894 5893 5892 5891 5891 5889 5888 5887 5886 5885 5885 5884 5883 5882
5875 5879 5880 5882 5885 5887 5889 5891 5893 5894 5895 5895 5897 5897 5900 5900 5901 5902 5902 5902 5902 5902 5902 5901 5900 5899 5898 5898 5897 5896 5895 5893 5892 5892 5891 5890 5889 5888 5887 5886 5885 5884 5883 5883
5870 5873 5875 5877 5881 5883 5885 5887 5888 5889 5890 5891 5892 5893 5897 5897 5898 5899 5900 5900 5900 5900 5900 5900 5899 5899 5898 5897 5896 5895 5894 5893 5892 5891 5890 5890 5889 5888 5887 5886 5884 5884 5883 5883
5865 5868 5870 5873 5876 5878 5880 5882 5883 5884 5885 5886 5889 5889 5892 5894 5895 5896 5897 5898 5898 5898 5898 5898 5897 5897 5896 5895 5894 5894 5893 5892 5891 5890 5890 5889 5889 5888 5887 5885 5884 5883 5882 5882
5858 5861 5864 5867 5869 5872 5874 5876 5877 5878 5879 5881 5884 5884 5887 5890 5891 5892 5894 5894 5895 5895 5895 5895 5894 5893 5893 5893 5892 5891 5891 5890 5890 5889 5888 5888 5888 5887 5886 5885 5883 5882 5881 5880
5852 5855 5858 5860 5863 5866 5868 5870 5872 5873 5874 5876 5878 5878 5883 5885 5886 5888 5889 5890 5890 5891 5891 5891 5890 5890 5890 5890 5890 5889 5889 5889 5888 5887 5886 5886 5886 5885 5884 5883 5882 5880 5879 5878
5845 5849 5852 5853 5856 5859 5861 5863 5866 5867 5868 5869 5870 5873 5877 5879 5881 5883 5884 5885 5886 5886 5887 5887 5887 5887 5887 5887 5887 5887 5887 5887 5886 5886 5885 5884 5884 5883 5882 5881 5880 5879 5877 5877
5837 5841 5845 5847 5849 5851 5854 5857 5859 5860 5860 5862 5864 5867 5871 5874 5876 5877 5879 5880 5881 5882 5882 5882 5883 5883 5883 5883 5883 5884 5883 5883 5883 5882 5882 5881 5881 5880 5880 5879 5877 5876 5876 5875
5831 5833 5837 5839 5841 5844 5847 5849 5851 5853 5854 5855 5856 5862 5866 5869 5870 5872 5873 5874 5875 5876 5877 5877 5878 5878 5879 5879 5879 5879 5879 5878 5878 5878 5878 5878 5877 5877 5876 5875 5874 5873 5872 5871
5824 5826 5828 5832 5835 5836 5839 5841 5844 5846 5847 5848 5850 5856 5859 5862 5864 5865 5867 5868 5869 5870 5871 5872 5873 5873 5874 5874 5874 5874 5874 5874 5873 5873 5873 5873 5872 5872 5872 5871 5871 5870 5869 5868
5816 5818 5821 5824 5828 5830 5831 5833 5836 5838 5840 5841 5843 5849 5852 5854 5856 5858 5860 5861 5862 5864 5865 5866 5867 5867 5868 5868 5868 5869 5869 5868 5868 5868 5868 5867 5866 5866 5866 5866 5866 5865 5864 5864
5808 5811 5814 5817 5820 5822 5823 5826 5828 5830 5831 5833 5835 5839 5844 5846 5848 5850 5852 5854 5855 5856 5857 5859 5860 5861 5861 5861 5862 5862 5862 5861 5861 5862 5862 5861 5860 5859 5860 5860 5860 5860 5859 5858
5801 5803 5806 5809 5812 5813 5815 5818 5820 5822 5824 5825 5828 5830 5835 5838 5840 5842 5843 5845 5847 5848 5850 5851 5852 5853 5854 5854 5854 5854 5854 5854 5854 5853 5854 5855 5854 5853 5852 5852 5853 5853 5852 5852
5793 5795 5798 5800 5803 5804 5807 5810 5812 5814 5816 5817 5819 5822 5826 5828 5830 5832 5834 5836 5838 5840 5841 5842 5843 5844 5845 5846 5846 5846 5846 5846 5846 5846 5847 5847 5847 5846 5845 5845 5845 5846 5845 5845
5785 5787 5789 5792 5794 5795 5798 5802 5803 5805 5807 5809 5810 5814 5816 5818 5821 5823 5825 5826 5828 5830 5832 5834 5835 5836 5837 5837 5837 5838 5838 5838 5838 5838 5838 5838 5838 5837 5837 5838 5838 5837 5837 5837
5778 5779 5780 5783 5785 5787 5792 5793 5794 5796 5798 5800 5802 5804 5807 5809 5810 5812 5814 5816 5818 5820 5822 5824 5826 5827 5828 5828 5829 5829 5829 5829 5830 5829 5829 5830 5830 5829 5829 5829 5829 5828 5829 5828
5770 5771 5772 5774 5776 5778 5783 5784 5785 5787 5790 5792 5793 5795 5797 5798 5800 5802 5804 5806 5807 5810 5812 5815 5816 5818 5818 5819 5820 5820 5820 5821 5821 5820 5820 5821 5821 5821 5821 5820 5820 5819 5819 5819
5761 5763 5765 5766 5767 5770 5774 5775 5776 5779 5780 5783 5784 5786 5787 5788 5790 5793 5795 5796 5797 5800 5802 5804 5806 5807 5807 5808 5809 5809 5810 5811 5811 5811 5812 5812 5812 5812 5811 5810 5810 5809 5809 5808
5753 5754 5756 5757 5758 5761 5764 5766 5767 5770 5773 5774 5775 5776 5778 5779 5780 5782 5784 5786 5788 5790 5792 5794 5796 5797 5798 5799 5799 5800 5801 5801 5801 5801 5802 5802 5801 5801 5800 5800 5800 5798 5798 5797
5744 5746 5748 5749 5751 5755 5755 5757 5759 5761 5762 5763 5765 5766 5767 5769 5770 5771 5773 5775 5777 5779 5782 5783 5785 5787 5788 5789 5789 5790 5790 5791 5791 5791 5791 5791 5790 5790 5789 5789 5789 5787 5787 5786
5736 5739 5740 5742 5745 5746 5747 5748 5750 5752 5753 5754 5756 5757 5758 5759 5761 5763 5764 5766 5767 5769 5771 5773 5775 5777 5778 5778 5779 5779 5780 5780 5780 5780 5780 5779 5779 5778 5778 5777 5776 5775 5774 5774
5728 5730 5732 5734 5735 5737 5738 5740 5741 5743 5744 5745 5746 5748 5749 5750 5752 5753 5755 5756 5758 5760 5762 5763 5764 5766 5767 5767 5767 5768 5768 5768 5768 5768 5768 5768 5767 5767 5766 5765 5764 5763 5762 5761
5720 5722 5723 5725 5727 5728 5730 5731 5732 5733 5735 5736 5737 5739 5740 5741 5743 5744 5746 5748 5750 5751 5752 5753 5754 5755 5756 5756 5756 5756 5756 5756 5756 5756 5756 5755 5754 5754 5753 5752 5751 5751 5750 5749
5713 5714 5716 5717 5719 5720 5721 5721 5723 5724 5726 5727 5728 5729 5731 5732 5734 5735 5737 5739 5740 5742 5743 5743 5744 5744 5745 5745 5744 5744 5744 5744 5744 5743 5743 5742 5742 5741 5741 5740 5739 5738 5738 5737